�������l�o���
Date,Time,MP-1(��Sv/h),MP-2(��Sv/h),MP-3(��Sv/h),MP-4(��Sv/h),MP-5(��Sv/h),MP-6(��Sv/h),MP-7(��Sv/h),MP-8(��Sv/h),����,����(m/s),���J
2023/12/25,00:00,0.514,0.770,0.487,0.981,0.701,0.313,0.563,0.526,�k�k��,3.7,��
2023/12/25,00:10,0.515,0.770,0.488,0.984,0.702,0.314,0.562,0.527,�k�k��,4.6,��
2023/12/25,00:20,0.513,0.773,0.487,0.984,0.701,0.315,0.562,0.528,�k�k��,4.3,��
2023/12/25,00:30,0.514,0.780,0.486,0.983,0.701,0.314,0.562,0.526,�k��,5.5,��
2023/12/25,00:40,0.512,0.779,0.486,0.982,0.701,0.314,0.564,0.527,�k��,5.7,��
2023/12/25,00:50,0.515,0.781,0.486,0.982,0.701,0.314,0.561,0.528,�k��,5.6,��
2023/12/25,01:00,0.514,0.779,0.486,0.981,0.702,0.313,0.563,0.526,�k�k��,5.1,��
2023/12/25,01:10,0.514,0.780,0.486,0.982,0.700,0.314,0.563,0.526,�k�k��,4.1,��
2023/12/25,01:20,0.514,0.779,0.487,0.982,0.700,0.315,0.561,0.529,�k�k��,5.1,��
2023/12/25,01:30,0.513,0.780,0.486,0.982,0.701,0.315,0.563,0.528,�k��,5.3,��
2023/12/25,01:40,0.514,0.778,0.487,0.982,0.701,0.314,0.562,0.526,���k��,6.6,��
2023/12/25,01:50,0.513,0.779,0.486,0.984,0.700,0.313,0.563,0.527,�k��,6.4,��
2023/12/25,02:00,0.514,0.780,0.487,0.983,0.700,0.314,0.564,0.527,�k��,2.9,��
2023/12/25,02:10,0.513,0.780,0.485,0.980,0.702,0.314,0.562,0.526,���k��,2.3,��
2023/12/25,02:20,0.514,0.779,0.486,0.983,0.700,0.314,0.561,0.528,-,CALM,��
2023/12/25,02:30,0.513,0.781,0.485,0.980,0.700,0.315,0.562,0.528,-,CALM,��
2023/12/25,02:40,0.513,0.778,0.486,0.983,0.701,0.313,0.561,0.527,-,CALM,��
2023/12/25,02:50,0.513,0.780,0.486,0.982,0.700,0.313,0.561,0.527,�k,1.7,��
2023/12/25,03:00,0.512,0.778,0.483,0.982,0.701,0.315,0.562,0.526,�k�k��,1.2,��
2023/12/25,03:10,0.514,0.780,0.487,0.983,0.700,0.315,0.561,0.528,���k��,1.1,��
2023/12/25,03:20,0.514,0.778,0.486,0.981,0.701,0.314,0.562,0.527,��,0.8,��
2023/12/25,03:30,0.513,0.779,0.485,0.980,0.700,0.314,0.561,0.526,���k��,2.6,��
2023/12/25,03:40,0.513,0.779,0.485,0.983,0.700,0.312,0.560,0.525,��,2.6,��
2023/12/25,03:50,0.514,0.779,0.486,0.981,0.700,0.313,0.562,0.525,���k��,3.2,��
2023/12/25,04:00,0.513,0.780,0.484,0.980,0.700,0.312,0.560,0.526,��,4.1,��
2023/12/25,04:10,0.513,0.779,0.486,0.981,0.700,0.313,0.561,0.527,��,4.0,��
2023/12/25,04:20,0.515,0.777,0.484,0.982,0.700,0.312,0.560,0.526,��,4.8,��
2023/12/25,04:30,0.514,0.781,0.486,0.979,0.701,0.314,0.561,0.526,��,4.5,��
2023/12/25,04:40,0.514,0.780,0.486,0.982,0.700,0.312,0.561,0.527,��,4.4,��
2023/12/25,04:50,0.513,0.779,0.485,0.982,0.700,0.313,0.561,0.526,��,4.3,��
2023/12/25,05:00,0.514,0.780,0.485,0.982,0.700,0.313,0.561,0.524,���k��,4.1,��
2023/12/25,05:10,0.514,0.778,0.486,0.982,0.700,0.312,0.559,0.525,�k��,3.4,��
2023/12/25,05:20,0.513,0.780,0.486,0.980,0.700,0.314,0.560,0.525,�k��,2.9,��
2023/12/25,05:30,0.514,0.778,0.484,0.982,0.698,0.314,0.561,0.526,�k,2.3,��
2023/12/25,05:40,0.512,0.778,0.487,0.981,0.702,0.312,0.561,0.526,�k�k��,2.0,��
2023/12/25,05:50,0.513,0.780,0.486,0.980,0.699,0.313,0.559,0.526,���k��,2.8,��
2023/12/25,06:00,0.512,0.779,0.486,0.981,0.702,0.313,0.560,0.526,���k��,4.7,��
2023/12/25,06:10,0.513,0.780,0.485,0.980,0.700,0.312,0.561,0.527,�k��,3.9,��
2023/12/25,06:20,0.513,0.779,0.487,0.979,0.699,0.314,0.560,0.526,���k��,4.2,��
2023/12/25,06:30,0.513,0.781,0.486,0.981,0.700,0.312,0.559,0.527,��,3.9,��
2023/12/25,06:40,0.513,0.781,0.485,0.981,0.698,0.312,0.561,0.526,��,3.9,��
2023/12/25,06:50,0.512,0.780,0.485,0.979,0.699,0.312,0.561,0.526,��,4.5,��
2023/12/25,07:00,0.513,0.779,0.485,0.982,0.700,0.313,0.559,0.526,��,4.8,��
2023/12/25,07:10,0.514,0.778,0.484,0.982,0.699,0.313,0.560,0.526,��,5.6,��
2023/12/25,07:20,0.513,0.780,0.485,0.982,0.700,0.311,0.561,0.526,��,5.6,��
2023/12/25,07:30,0.512,0.780,0.485,0.983,0.700,0.312,0.561,0.526,���k��,5.1,��
2023/12/25,07:40,0.513,0.778,0.484,0.983,0.699,0.312,0.561,0.526,���k��,4.6,��
2023/12/25,07:50,0.514,0.781,0.484,0.982,0.699,0.312,0.562,0.527,�k��,3.6,��
2023/12/25,08:00,0.512,0.780,0.486,0.983,0.698,0.313,0.561,0.526,�k��,3.1,��
2023/12/25,08:10,0.514,0.779,0.485,0.983,0.699,0.313,0.561,0.526,�k��,4.2,��
2023/12/25,08:20,0.514,0.780,0.485,0.985,0.700,0.311,0.561,0.525,�k��,3.5,��
2023/12/25,08:30,0.513,0.778,0.485,0.984,0.700,0.313,0.562,0.525,�k��,2.8,��
2023/12/25,08:40,0.513,0.779,0.485,0.983,0.698,0.314,0.562,0.527,�k��,4.1,��
2023/12/25,08:50,0.514,0.779,0.486,0.982,0.699,0.316,0.562,0.525,�k��,2.2,��
2023/12/25,09:00,0.513,0.778,0.486,0.984,0.700,0.313,0.561,0.527,�k��,2.0,��
2023/12/25,09:10,0.513,0.779,0.485,0.981,0.699,0.312,0.563,0.528,�k��,1.9,��
2023/12/25,09:20,0.514,0.780,0.487,0.982,0.698,0.315,0.563,0.524,�k�k��,1.5,��
2023/12/25,09:30,0.515,0.778,0.487,0.982,0.700,0.313,0.563,0.527,�k�k��,2.5,��
2023/12/25,09:40,0.512,0.778,0.484,0.983,0.700,0.312,0.564,0.527,�k,2.9,��
2023/12/25,09:50,0.514,0.779,0.486,0.980,0.700,0.312,0.562,0.527,�k,3.3,��
2023/12/25,10:00,0.514,0.777,0.484,0.982,0.701,0.314,0.560,0.528,�k,3.4,��
2023/12/25,10:10,0.514,0.777,0.486,0.982,0.699,0.313,0.561,0.527,�k,4.1,��
2023/12/25,10:20,0.513,0.776,0.487,0.981,0.701,0.313,0.562,0.526,�k,4.3,��
2023/12/25,10:30,0.514,0.779,0.486,0.982,0.701,0.314,0.561,0.525,�k�k��,4.8,��
2023/12/25,10:40,0.515,0.774,0.486,0.982,0.702,0.314,0.561,0.526,�k�k��,5.1,��
2023/12/25,10:50,0.515,0.778,0.486,0.984,0.700,0.312,0.560,0.528,�k�k��,5.2,��
2023/12/25,11:00,0.514,0.779,0.486,0.983,0.701,0.314,0.561,0.526,�k�k��,5.3,��
2023/12/25,11:10,0.514,0.778,0.487,0.986,0.703,0.314,0.561,0.527,�k�k��,4.8,��
2023/12/25,11:20,0.515,0.778,0.488,0.983,0.702,0.312,0.562,0.526,�k�k��,4.7,��
2023/12/25,11:30,0.515,0.778,0.487,0.983,0.703,0.315,0.561,0.527,�k�k��,3.8,��
2023/12/25,11:40,0.513,0.779,0.488,0.981,0.702,0.313,0.563,0.527,�k�k��,3.5,��
2023/12/25,11:50,0.512,0.782,0.486,0.983,0.703,0.314,0.564,0.527,�k�k��,3.5,��
2023/12/25,12:00,0.511,0.778,0.488,0.983,0.702,0.313,0.562,0.526,�k�k��,4.1,��
2023/12/25,12:10,0.515,0.776,0.486,0.983,0.703,0.314,0.561,0.527,�k��,3.0,��
2023/12/25,12:20,0.514,0.775,0.487,0.984,0.701,0.314,0.563,0.528,�k��,3.0,��
2023/12/25,12:30,0.516,0.780,0.489,0.983,0.702,0.314,0.564,0.528,�k��,3.2,��
2023/12/25,12:40,0.515,0.779,0.489,0.983,0.703,0.313,0.563,0.526,�k��,3.1,��
2023/12/25,12:50,0.515,0.779,0.489,0.982,0.702,0.314,0.564,0.527,�k��,2.2,��
2023/12/25,13:00,0.516,0.779,0.489,0.981,0.704,0.314,0.564,0.529,�k��,2.0,��
2023/12/25,13:10,0.516,0.779,0.489,0.984,0.704,0.315,0.563,0.527,�k��,1.8,��
2023/12/25,13:20,0.514,0.779,0.490,0.985,0.702,0.314,0.564,0.527,�k��,2.0,��
2023/12/25,13:30,0.515,0.778,0.489,0.986,0.705,0.315,0.564,0.526,�k��,2.2,��
2023/12/25,13:40,0.515,0.778,0.489,0.982,0.703,0.316,0.565,0.526,�k�k��,1.2,��
2023/12/25,13:50,0.515,0.779,0.486,0.983,0.704,0.314,0.564,0.527,��,0.6,��
2023/12/25,14:00,0.516,0.779,0.489,0.982,0.703,0.315,0.563,0.526,���k��,1.2,��
2023/12/25,14:10,0.516,0.777,0.488,0.985,0.704,0.315,0.564,0.527,���k��,1.7,��
2023/12/25,14:20,0.514,0.779,0.490,0.983,0.704,0.315,0.563,0.526,��,1.7,��
2023/12/25,14:30,0.515,0.779,0.490,0.982,0.703,0.314,0.564,0.525,���쓌,2.0,��
2023/12/25,14:40,0.517,0.781,0.489,0.982,0.700,0.315,0.561,0.527,�쓌,1.7,��
2023/12/25,14:50,0.515,0.781,0.490,0.984,0.695,0.315,0.563,0.528,-,CALM,��
2023/12/25,15:00,0.515,0.781,0.489,0.983,0.702,0.313,0.564,0.527,���쓌,1.1,��
2023/12/25,15:10,0.517,0.783,0.489,0.984,0.702,0.314,0.563,0.527,��쓌,0.9,��
2023/12/25,15:20,0.516,0.781,0.488,0.984,0.702,0.315,0.561,0.527,���쓌,1.1,�L
2023/12/25,15:30,0.515,0.782,0.489,0.984,0.702,0.314,0.563,0.527,�쓌,2.0,��
2023/12/25,15:40,0.517,0.781,0.488,0.983,0.703,0.314,0.564,0.526,��쓌,1.2,��
2023/12/25,15:50,0.516,0.779,0.490,0.984,0.702,0.315,0.564,0.527,��쓌,1.2,��
2023/12/25,16:00,0.517,0.781,0.488,0.984,0.704,0.315,0.562,0.528,��쐼,0.8,��
2023/12/25,16:10,0.516,0.782,0.489,0.983,0.704,0.314,0.562,0.527,��,1.1,��
2023/12/25,16:20,0.515,0.784,0.489,0.982,0.703,0.316,0.561,0.528,�쐼,1.1,��
2023/12/25,16:30,0.515,0.782,0.488,0.983,0.703,0.314,0.563,0.528,���쐼,1.1,��
2023/12/25,16:40,0.515,0.782,0.490,0.982,0.704,0.314,0.562,0.529,���쐼,1.5,��
2023/12/25,16:50,0.516,0.781,0.487,0.983,0.702,0.314,0.561,0.527,��,2.2,��
2023/12/25,17:00,0.515,0.782,0.488,0.982,0.702,0.315,0.563,0.527,��,2.6,��
2023/12/25,17:10,0.516,0.783,0.488,0.983,0.702,0.314,0.562,0.526,���k��,2.5,��
2023/12/25,17:20,0.514,0.781,0.489,0.983,0.703,0.314,0.563,0.527,���k��,2.3,�L
2023/12/25,17:30,0.515,0.782,0.487,0.983,0.703,0.314,0.563,0.527,���k��,2.0,�L
2023/12/25,17:40,0.515,0.784,0.489,0.984,0.705,0.315,0.565,0.527,�k��,3.2,�L
2023/12/25,17:50,0.516,0.783,0.490,0.984,0.705,0.315,0.564,0.528,���k��,3.7,�L
2023/12/25,18:00,0.515,0.783,0.489,0.983,0.703,0.315,0.562,0.526,�k��,4.2,�L
2023/12/25,18:10,0.515,0.783,0.489,0.985,0.705,0.315,0.563,0.526,�k��,4.2,�L
2023/12/25,18:20,0.516,0.783,0.488,0.985,0.703,0.315,0.563,0.527,���k��,3.4,�L
2023/12/25,18:30,0.518,0.783,0.491,0.984,0.704,0.316,0.561,0.526,�k��,3.1,�L
2023/12/25,18:40,0.516,0.782,0.488,0.983,0.703,0.316,0.563,0.527,���k��,3.0,��
2023/12/25,18:50,0.517,0.780,0.490,0.986,0.704,0.317,0.563,0.527,���k��,3.3,��
2023/12/25,19:00,0.515,0.782,0.489,0.986,0.704,0.316,0.562,0.525,���k��,3.2,��
2023/12/25,19:10,0.516,0.783,0.489,0.984,0.705,0.315,0.563,0.525,��,2.6,��
2023/12/25,19:20,0.516,0.783,0.489,0.984,0.704,0.315,0.562,0.526,���k��,4.1,��
2023/12/25,19:30,0.516,0.783,0.488,0.985,0.704,0.315,0.561,0.527,���k��,4.7,��
2023/12/25,19:40,0.516,0.780,0.488,0.984,0.703,0.316,0.562,0.528,���k��,5.4,��
2023/12/25,19:50,0.516,0.781,0.490,0.985,0.703,0.315,0.562,0.527,�k��,5.3,��
2023/12/25,20:00,0.515,0.781,0.488,0.984,0.703,0.314,0.562,0.525,���k��,5.5,��
2023/12/25,20:10,0.516,0.781,0.489,0.983,0.701,0.315,0.563,0.524,�k��,6.3,��
2023/12/25,20:20,0.516,0.783,0.489,0.982,0.704,0.313,0.562,0.527,�k��,6.2,��
2023/12/25,20:30,0.514,0.782,0.490,0.985,0.704,0.314,0.561,0.527,���k��,6.6,��
2023/12/25,20:40,0.516,0.781,0.489,0.984,0.704,0.315,0.562,0.527,���k��,7.0,��
2023/12/25,20:50,0.514,0.782,0.489,0.985,0.703,0.316,0.561,0.526,�k��,4.6,��
2023/12/25,21:00,0.514,0.783,0.489,0.984,0.701,0.316,0.561,0.526,���k��,6.6,��
2023/12/25,21:10,0.515,0.782,0.488,0.985,0.704,0.314,0.561,0.525,���k��,8.1,��
2023/12/25,21:20,0.515,0.782,0.488,0.986,0.704,0.314,0.562,0.527,���k��,6.7,��
2023/12/25,21:30,0.515,0.785,0.488,0.984,0.703,0.314,0.562,0.526,���k��,6.9,��
2023/12/25,21:40,0.514,0.780,0.489,0.985,0.704,0.314,0.560,0.524,���k��,7.2,��
2023/12/25,21:50,0.515,0.782,0.489,0.985,0.703,0.314,0.561,0.526,��,7.0,��
2023/12/25,22:00,0.515,0.779,0.489,0.982,0.703,0.314,0.561,0.526,��,7.0,��
2023/12/25,22:10,0.515,0.780,0.489,0.984,0.702,0.313,0.561,0.526,��,8.9,��
2023/12/25,22:20,0.515,0.781,0.488,0.983,0.703,0.313,0.563,0.525,��,10.2,��
2023/12/25,22:30,0.515,0.780,0.489,0.985,0.702,0.315,0.561,0.526,��,10.2,��
2023/12/25,22:40,0.515,0.781,0.488,0.984,0.702,0.314,0.562,0.527,��,8.8,��
2023/12/25,22:50,0.516,0.782,0.489,0.984,0.702,0.314,0.563,0.526,��,7.6,��
2023/12/25,23:00,0.516,0.781,0.486,0.986,0.701,0.315,0.561,0.526,��,7.1,��
2023/12/25,23:10,0.515,0.781,0.487,0.982,0.702,0.314,0.563,0.526,��,10.8,��
2023/12/25,23:20,0.513,0.783,0.488,0.984,0.702,0.315,0.562,0.526,��,10.7,��
2023/12/25,23:30,0.514,0.782,0.488,0.985,0.703,0.315,0.563,0.525,��,10.5,��
2023/12/25,23:40,0.514,0.783,0.488,0.985,0.702,0.314,0.565,0.526,��,9.6,��
2023/12/25,23:50,0.516,0.781,0.489,0.986,0.703,0.315,0.564,0.526,���쐼,9.7,��
